[[{"header":{"parameterUnit":"m.s-1","parameterCategory":1,"la1":30.2991,"la2":30.254,"lo1":-89.0895,"lo2":-89.0444,"dy":0.0017,"dx":0.0017,"nx":28,"ny":28,"refTime":"2024-07-02T03:00:00:Z","depth":0,"parameterNumber":2,"parameterNumberName":"U-component_of_WINDS"},"data":[0,0,0,0,0,0,0,0,0,0,0,0,0,0,0,0,0,0,0,0,0,0,0,0,0,0,0,0,0,0,0,0,0,0,0,0,0,0,0,0,0,0,0,0,0,0,0,0,0,0,0,0,0,0,0,0,0,0,-2.5219,-2.5219,0,-2.5174,-2.5173,-2.5173,-2.5135,-2.5134,-2.5134,-2.5134,-2.5085,-2.5084,-2.5084,0,0,0,0,0,0,0,0,0,0,0,0,0,-2.5272,-2.5271,-2.5219,-2.5219,-2.5218,-2.5174,-2.5173,-2.5173,-2.5135,-2.5134,-2.5134,-2.5133,-2.5086,-2.5085,-2.5083,0,0,0,0,0,0,0,0,0,0,0,0,0,-2.524,-2.5271,-2.5219,-2.5194,-2.5191,-2.5174,-2.5173,-2.5172,-2.5135,-2.5134,-2.5134,-2.5133,-2.5086,-2.5085,-2.5083,-2.5087,0,0,-2.5079,-2.5079,0,0,0,0,0,0,0,0,-2.5242,-2.5238,-2.5198,-2.5196,-2.5193,-2.5159,-2.5174,-2.5144,-2.5135,-2.5156,-2.5134,-2.5133,-2.511,-2.5107,-2.51,-2.5085,-2.5083,-2.5079,-2.5078,-2.5078,-2.5077,0,0,0,0,0,0,0,-2.5244,-2.524,-2.5201,-2.5198,-2.5194,-2.5185,-2.5179,-2.5168,-2.5137,-2.5154,-2.5152,-2.5147,-2.5109,-2.5101,-2.5098,-2.5082,-2.5079,-2.5078,-2.5077,-2.5076,-2.5068,-2.5068,0,0,0,0,0,0,-2.5251,-2.5242,-2.5203,-2.52,-2.5216,-2.5184,-2.5178,-2.5171,-2.5137,-2.5132,-2.5147,-2.5145,-2.5104,-2.51,-2.5096,-2.5098,-2.5078,-2.5076,-2.5076,-2.5067,-2.5068,-2.5069,0,0,0,0,0,0,-2.5252,-2.5248,-2.5204,-2.522,-2.5214,-2.5184,-2.5176,-2.517,-2.5162,-2.5132,-2.5126,-2.5145,-2.5103,-2.5098,-2.509,-2.5096,-2.5076,-2.5074,-2.5067,-2.5067,-2.5068,-2.5102,0,0,0,0,0,0,-2.5254,-2.5248,-2.5249,-2.5221,-2.5213,-2.5199,-2.5176,-2.517,-2.516,-2.5157,-2.5128,-2.5123,-2.5102,-2.5092,-2.5088,-2.5094,-2.5073,-2.5066,-2.5067,-2.5068,-2.51,-2.5104,-2.5107,0,0,0,0,0,-2.5256,-2.526,-2.525,-2.5245,-2.5214,-2.5199,-2.5195,-2.5171,-2.5161,-2.5162,-2.5142,-2.5124,-2.5096,-2.5091,-2.5087,-2.5092,-2.5065,-2.5067,-2.5068,-2.5099,-2.5103,-2.5107,0,0,0,0,0,0,-2.529,-2.5256,-2.5244,-2.5239,-2.5223,-2.5193,-2.5193,-2.5177,-2.5162,-2.516,-2.5131,-2.5125,-2.5119,-2.5105,-2.51,-2.5094,-2.5078,-2.5079,-2.5103,-2.5107,-2.5111,-2.5114,-2.5072,0,0,0,0,0,-2.5297,-2.5288,-2.5259,-2.5258,-2.525,-2.5223,-2.5216,-2.5199,-2.5181,-2.5173,-2.5153,-2.5135,-2.5122,-2.5114,-2.5101,-2.5099,-2.5091,-2.51,-2.5103,-2.5106,-2.5107,-2.5104,-2.5107,-2.5073,-2.5073,-2.5073,0,0,-2.5312,-2.5292,-2.5288,-2.5264,-2.5249,-2.524,-2.5218,-2.5209,-2.5202,-2.5171,-2.5162,-2.5147,-2.5125,-2.512,-2.5116,-2.5108,-2.5115,-2.5108,-2.5111,-2.5109,-2.5106,-2.5109,-2.5112,-2.5074,-2.5074,-2.5074,0,0,-2.5333,-2.5318,-2.5315,-2.5301,-2.5279,-2.5261,-2.5261,-2.5234,-2.5222,-2.5213,-2.519,-2.5181,-2.516,-2.5145,-2.5135,-2.5152,-2.5134,-2.5149,-2.5166,-2.5164,-2.5167,-2.5169,-2.5175,-2.5177,-2.5149,-2.515,-2.515,0,-2.5353,-2.5339,-2.5315,-2.5308,-2.5298,-2.5272,-2.5269,-2.5256,-2.523,-2.5224,-2.5215,-2.5188,-2.5171,-2.5162,-2.5167,-2.516,-2.5157,-2.5151,-2.5169,-2.5171,-2.5172,-2.5177,-2.5179,-2.5151,-2.5151,-2.5151,-2.5151,0,-2.5365,-2.5356,-2.5356,-2.5333,-2.5323,-2.5318,-2.5294,-2.5287,-2.5272,-2.5255,-2.5245,-2.5225,-2.5207,-2.5204,-2.5188,-2.5192,-2.5187,-2.5174,-2.5158,-2.5178,-2.5182,-2.5183,-2.5154,-2.5153,-2.5153,-2.5152,0,0,-2.5406,-2.537,-2.5371,-2.536,-2.5334,-2.5326,-2.532,-2.5303,-2.5297,-2.5281,-2.5275,-2.5258,-2.5246,-2.5234,-2.5217,-2.5216,-2.523,-2.5202,-2.5201,-2.5207,-2.5232,-2.5242,-2.5244,-2.5219,-2.5219,-2.522,-2.5234,0,-2.5422,-2.541,-2.5388,-2.5383,-2.5374,-2.5349,-2.5343,-2.5327,-2.5312,-2.5301,-2.5284,-2.5272,-2.5257,-2.525,-2.5248,-2.5229,-2.5234,-2.5228,-2.5212,-2.5212,-2.5217,-2.5247,-2.5256,-2.5271,-2.5235,-2.5236,-2.5236,0,-2.5439,-2.5425,-2.5419,-2.5394,-2.5389,-2.5385,-2.5368,-2.5358,-2.5339,-2.5328,-2.5316,-2.5298,-2.529,-2.5276,-2.5264,-2.526,-2.5253,-2.5243,-2.5243,-2.5239,-2.5224,-2.5243,-2.5275,-2.5277,-2.5238,-2.5238,-2.5238,0,-2.5468,-2.5448,-2.5441,-2.5433,-2.5404,-2.5401,-2.5389,-2.5369,-2.5361,-2.5346,-2.534,-2.5324,-2.5315,-2.5303,-2.5281,-2.5274,-2.5272,-2.5256,-2.5262,-2.5262,-2.5261,-2.5261,-2.5292,-2.5259,-2.5259,-2.5259,-2.5259,0,-2.5488,-2.5485,-2.5454,-2.545,-2.5445,-2.5421,-2.5418,-2.5403,-2.5386,-2.5378,-2.5356,-2.5349,-2.5321,-2.5311,-2.5294,-2.5287,-2.5283,-2.5274,-2.5269,-2.5275,-2.5276,-2.5268,-2.5266,-2.5259,-2.5259,-2.5259,-2.5259,0,-2.552,-2.5498,-2.5489,-2.5463,-2.5457,-2.5455,-2.5432,-2.5427,-2.5411,-2.5401,-2.5398,-2.5372,-2.5359,-2.5336,-2.5317,-2.5305,-2.5301,-2.5294,-2.5307,-2.5304,-2.5311,-2.531,-2.5336,-2.5338,-2.5305,-2.5306,-2.5306,0,-2.5533,-2.553,-2.5504,-2.5497,-2.5486,-2.5476,-2.5467,-2.5443,-2.5435,-2.5414,-2.5411,-2.5397,-2.5383,-2.5364,-2.5343,-2.5328,-2.532,-2.533,-2.5317,-2.5323,-2.5319,-2.5319,-2.5318,-2.5332,-2.5333,-2.5333,-2.5334,0,-2.5559,-2.5549,-2.5537,-2.5522,-2.5512,-2.5499,-2.5485,-2.5481,-2.5454,-2.5445,-2.5432,-2.5422,-2.5403,-2.5388,-2.5371,-2.5358,-2.5341,-2.5338,-2.5338,-2.5344,-2.5352,-2.5346,-2.5314,-2.5337,-2.5337,-2.5337,-2.5336,-2.5336,-2.5581,-2.5577,-2.5558,-2.5546,-2.5533,-2.552,-2.5514,-2.5497,-2.5486,-2.5468,-2.5455,-2.5443,-2.5424,-2.5399,-2.5387,-2.5377,-2.5369,-2.537,-2.5369,-2.537,-2.5372,-2.5354,-2.5373,-2.5373,-2.5373,-2.5373,-2.5373,0,-2.5606,-2.5592,-2.5581,-2.5562,-2.5552,-2.5539,-2.5522,-2.5515,-2.5504,-2.5488,-2.5476,-2.5461,-2.5447,-2.5426,-2.5411,-2.5406,-2.5398,-2.5403,-2.5402,-2.54,-2.538,-2.5381,-2.541,-2.541,-2.541,-2.541,-2.541,-2.541,-2.5617,-2.561,-2.5597,-2.5583,-2.557,-2.5558,-2.5549,-2.5537,-2.5524,-2.5509,-2.5497,-2.5484,-2.5466,-2.5449,-2.5435,-2.543,-2.5424,-2.5431,-2.5423,-2.5405,-2.5401,-2.5398,-2.5398,-2.5431,-2.5431,-2.5443,-2.5443,-2.5444]},{"header":{"parameterUnit":"m.s-1","parameterCategory":1,"la1":30.2991,"la2":30.254,"lo1":-89.0895,"lo2":-89.0444,"dy":0.0017,"dx":0.0017,"nx":28,"ny":28,"refTime":"2024-07-02T03:00:00:Z","depth":0,"parameterNumber":3,"parameterNumberName":"V-component_of_WINDS"},"data":[0,0,0,0,0,0,0,0,0,0,0,0,0,0,0,0,0,0,0,0,0,0,0,0,0,0,0,0,0,0,0,0,0,0,0,0,0,0,0,0,0,0,0,0,0,0,0,0,0,0,0,0,0,0,0,0,0,0,4.5922,4.5922,0,4.5936,4.5936,4.5936,4.5881,4.588,4.5878,4.5877,4.5889,4.5891,4.5893,0,0,0,0,0,0,0,0,0,0,0,0,0,4.5847,4.5848,4.5922,4.5922,4.5922,4.5936,4.5936,4.5936,4.5882,4.588,4.5878,4.5876,4.5889,4.5891,4.5893,0,0,0,0,0,0,0,0,0,0,0,0,0,4.5872,4.5849,4.5922,4.5897,4.5894,4.5936,4.5936,4.5936,4.5882,4.588,4.5877,4.5875,4.5888,4.5891,4.5893,4.5959,0,0,4.5902,4.5903,0,0,0,0,0,0,0,0,4.587,4.5875,4.59,4.5898,4.5896,4.5904,4.5914,4.5944,4.5883,4.5887,4.5876,4.5874,4.5896,4.5898,4.5906,4.596,4.596,4.5902,4.5904,4.5905,4.5906,0,0,0,0,0,0,0,4.5869,4.5874,4.5927,4.5901,4.5898,4.5884,4.5885,4.592,4.5905,4.5886,4.5882,4.5885,4.5895,4.5904,4.5906,4.5961,4.5902,4.5905,4.5906,4.5907,4.6071,4.6073,0,0,0,0,0,0,4.5871,4.5873,4.5927,4.5928,4.5877,4.5888,4.5889,4.5904,4.5904,4.5902,4.5887,4.5882,4.59,4.5903,4.5906,4.5984,4.5905,4.5908,4.5909,4.6068,4.6071,4.6074,0,0,0,0,0,0,4.5869,4.5876,4.5926,4.5899,4.5905,4.5892,4.5909,4.5906,4.5915,4.5905,4.5902,4.5899,4.5898,4.5902,4.5947,4.5984,4.5909,4.5911,4.6065,4.6069,4.6073,4.6141,0,0,0,0,0,0,4.5867,4.5876,4.5901,4.59,4.5906,4.5967,4.5912,4.5908,4.592,4.5914,4.5915,4.5913,4.5897,4.5943,4.595,4.5986,4.5914,4.6061,4.6067,4.6071,4.6135,4.6147,4.6156,0,0,0,0,0,4.5865,4.5919,4.5902,4.5909,4.5937,4.5969,4.5973,4.5953,4.5923,4.5948,4.5942,4.5913,4.5979,4.5948,4.5955,4.5993,4.6059,4.6065,4.6071,4.613,4.6144,4.6156,0,0,0,0,0,0,4.5923,4.5918,4.59,4.5955,4.5963,4.596,4.5991,4.5968,4.5985,4.5978,4.5953,4.5954,4.6003,4.6002,4.5968,4.6058,4.6014,4.6021,4.6056,4.607,4.608,4.6079,4.5916,0,0,0,0,0,4.5942,4.5969,4.5963,4.6013,4.6018,4.6004,4.6017,4.6002,4.6009,4.6012,4.6009,4.6016,4.6039,4.6054,4.6074,4.6135,4.6135,4.6165,4.6175,4.6184,4.6191,4.6224,4.6238,4.6094,4.6094,4.6094,0,0,4.5982,4.5983,4.6001,4.6024,4.6029,4.6057,4.6007,4.6039,4.606,4.6016,4.6059,4.6057,4.6064,4.6117,4.6141,4.6118,4.6231,4.6192,4.6199,4.6201,4.6232,4.6246,4.6258,4.6098,4.6097,4.6097,0,0,4.607,4.6073,4.6115,4.6121,4.6129,4.612,4.613,4.6131,4.6128,4.6171,4.6139,4.6163,4.6202,4.6209,4.6217,4.6309,4.6284,4.6316,4.6372,4.6405,4.6416,4.6426,4.646,4.6472,4.6323,4.6324,4.6324,0,4.6118,4.616,4.6139,4.6174,4.6186,4.6149,4.6191,4.6198,4.6212,4.622,4.6195,4.6245,4.6246,4.6301,4.6324,4.6332,4.6343,4.6316,4.6416,4.6426,4.6435,4.6467,4.648,4.6328,4.6327,4.6327,4.6326,0,4.622,4.625,4.6283,4.6299,4.6314,4.6353,4.6337,4.6355,4.6339,4.6332,4.6376,4.6378,4.6398,4.641,4.6393,4.6463,4.6449,4.6421,4.6376,4.6453,4.6483,4.6495,4.6333,4.6332,4.6331,4.633,0,0,4.6344,4.6349,4.6362,4.6369,4.6375,4.6398,4.6435,4.6456,4.6472,4.6483,4.6514,4.6549,4.6523,4.6533,4.6517,4.6546,4.662,4.6514,4.6513,4.6534,4.6698,4.672,4.6734,4.6603,4.6605,4.6607,4.6698,0,4.6431,4.6496,4.6478,4.6543,4.657,4.6536,4.6569,4.6576,4.6572,4.6594,4.6588,4.6614,4.6577,4.6583,4.661,4.6605,4.6653,4.6598,4.6632,4.6633,4.6632,4.675,4.6773,4.6858,4.6709,4.6711,4.6712,0,4.6541,4.6558,4.6625,4.6629,4.664,4.6669,4.6688,4.671,4.6718,4.6713,4.6725,4.6703,4.674,4.6695,4.6746,4.671,4.6722,4.6722,4.6725,4.6727,4.6678,4.6756,4.6885,4.6898,4.673,4.6729,4.6728,0,4.6626,4.6665,4.6711,4.6718,4.6723,4.6745,4.6748,4.6754,4.6768,4.6784,4.6793,4.6813,4.6824,4.6839,4.6824,4.6793,4.6878,4.6831,4.6875,4.6875,4.6894,4.6893,4.7027,4.6901,4.6901,4.6901,4.6901,0,4.6725,4.6768,4.675,4.6778,4.6825,4.6805,4.6852,4.6851,4.6857,4.6884,4.6855,4.6882,4.686,4.6884,4.6872,4.6917,4.6922,4.6919,4.6915,4.6922,4.6922,4.693,4.6924,4.6904,4.6904,4.6903,4.6902,0,4.6828,4.6817,4.6865,4.6867,4.6868,4.6903,4.6904,4.693,4.6924,4.6959,4.6966,4.6956,4.6983,4.697,4.6998,4.699,4.7048,4.7036,4.7045,4.7042,4.7087,4.7083,4.7231,4.725,4.7111,4.7112,4.7114,0,4.6892,4.6925,4.693,4.6947,4.6953,4.698,4.6994,4.6976,4.6992,4.7005,4.703,4.7055,4.7074,4.712,4.7115,4.7137,4.7125,4.7176,4.7128,4.7135,4.7127,4.7126,4.7129,4.7185,4.7187,4.7188,4.7189,0,4.7008,4.7002,4.7024,4.7046,4.7065,4.708,4.7094,4.7109,4.7091,4.7111,4.7139,4.7154,4.7184,4.721,4.7229,4.7231,4.7208,4.7204,4.7216,4.7223,4.7228,4.7227,4.7072,4.7201,4.72,4.7199,4.7198,4.7198,4.7094,4.7122,4.7131,4.7158,4.7166,4.7179,4.7205,4.7202,4.7225,4.7249,4.7236,4.727,4.7278,4.7301,4.7307,4.7333,4.7313,4.7329,4.7333,4.7338,4.7345,4.7223,4.7336,4.7336,4.7336,4.7335,4.7335,0,4.721,4.7214,4.7239,4.7259,4.728,4.7257,4.727,4.729,4.732,4.733,4.735,4.7383,4.7408,4.7405,4.7428,4.745,4.744,4.7456,4.7455,4.7456,4.736,4.7349,4.7464,4.7464,4.7464,4.7464,4.7464,4.7464,4.7272,4.7318,4.7313,4.7364,4.7367,4.7401,4.7411,4.7423,4.7431,4.747,4.7491,4.7489,4.7495,4.7518,4.754,4.7539,4.7549,4.757,4.7565,4.7475,4.7463,4.7451,4.744,4.7572,4.7572,4.7658,4.7659,4.766]}]]